Date,TemperatureHighF,TemperatureAvgF,TemperatureLowF,DewpointHighF,DewpointAvgF,DewpointLowF,HumidityHigh,HumidityAvg,HumidityLow,PressureMaxIn,PressureMinIn,WindSpeedMaxMPH,WindSpeedAvgMPH,GustSpeedMaxMPH,PrecipitationSumIn
2013-4-1,54.0,45.1,37.1,45.0,32.3,27.0,73,62,44,30.21,29.90,15,6,19,0.00
2013-4-2,48.9,39.7,31.1,31.0,24.4,15.0,79,56,27,30.34,30.21,8,3,15,0.00
2013-4-3,53.1,43.1,30.3,31.0,28.1,24.0,91,58,37,30.38,30.24,8,2,12,0.00
2013-4-4,60.9,46.9,34.7,39.0,29.6,26.0,82,54,28,30.24,30.01,5,1,18,0.00
2013-4-5,66.2,51.7,33.7,46.0,37.6,30.0,89,62,33,30.14,30.04,11,3,17,0.00
2013-4-6,73.3,61.2,44.4,47.0,40.8,37.0,77,50,30,30.08,29.81,22,8,35,0.00
2013-4-7,76.0,67.9,58.6,58.0,54.0,46.0,82,62,49,29.93,29.83,16,7,20,0.00
2013-4-8,74.7,66.4,60.2,61.0,57.0,54.0,84,72,56,29.91,29.80,22,7,24,0.00
2013-4-9,82.3,71.4,62.6,65.0,61.3,57.0,84,71,53,29.95,29.83,21,8,28,0.00
2013-4-10,81.4,75.0,66.1,71.0,67.0,63.0,91,76,65,29.85,29.64,23,8,26,0.31
2013-4-11,66.5,53.6,42.6,64.0,50.7,36.0,95,90,76,29.75,29.55,21,6,26,0.40
2013-4-12,53.8,44.7,36.3,38.0,35.3,34.0,91,71,55,30.04,29.74,14,5,20,0.00
2013-4-13,62.6,49.5,32.9,44.0,38.1,31.0,94,68,43,30.09,29.95,11,2,15,0.00
2013-4-14,77.1,63.1,46.8,55.0,47.6,41.0,82,59,36,29.94,29.70,19,8,31,0.00
2013-4-15,77.5,66.0,56.2,64.0,57.9,51.0,87,75,61,29.91,29.78,18,5,22,0.00
2013-4-16,71.0,59.9,54.1,62.0,55.7,51.0,91,86,72,30.10,29.84,11,4,18,0.00
2013-4-17,85.0,68.2,53.5,72.0,62.3,52.0,97,82,60,30.10,29.76,19,5,24,0.00
2013-4-18,76.6,67.2,45.1,68.0,61.0,41.0,95,81,66,29.76,29.61,26,12,33,1.69
2013-4-19,50.9,44.4,38.7,40.0,33.8,30.0,83,67,47,30.08,29.70,14,5,26,0.43
2013-4-20,56.8,46.0,33.7,38.0,34.4,30.0,92,66,37,30.35,30.08,8,2,15,0.00
2013-4-21,63.6,50.9,39.7,46.0,39.1,34.0,81,65,43,30.44,30.27,6,2,10,0.01
2013-4-22,73.7,57.7,39.5,51.0,44.1,37.0,90,64,35,30.28,30.02,12,3,17,0.00
2013-4-23,70.8,59.2,45.3,62.0,52.9,43.0,93,80,67,30.03,29.79,25,7,27,0.21
2013-4-24,51.4,44.3,38.0,43.0,38.9,34.0,94,82,54,30.27,29.92,23,6,23,0.59
2013-4-25,61.8,48.9,34.4,44.0,39.0,33.0,95,72,41,30.35,30.27,13,3,16,0.00
2013-4-26,59.8,51.9,43.4,50.0,44.6,39.0,94,77,58,30.42,30.26,14,2,14,0.02
2013-4-27,57.6,53.8,50.1,56.0,52.3,49.0,97,95,89,30.32,29.89,6,2,11,0.21
2013-4-28,59.2,56.2,54.1,56.0,54.2,53.0,97,92,85,29.95,29.86,10,3,13,0.02
2013-4-29,73.9,61.0,46.0,62.0,55.0,45.0,97,82,60,29.99,29.85,12,4,17,0.00
2013-4-30,83.8,70.1,57.3,62.0,58.5,55.0,91,70,45,29.96,29.86,12,4,17,0.00